Weather reports worldwide

Advertisment
Baruth, Germany (10376): temperature & dewpoint: 16.01.2019 04:00:00 - 22.01.2019 04:00:00 (CET)Baruth, Germany (10376): temperature 5cm & temperature -5cm: 16.01.2019 04:00:00 - 22.01.2019 04:00:00 (CET)Baruth, Germany (10376): temperature -20cm & temperature -100cm: 16.01.2019 04:00:00 - 22.01.2019 04:00:00 (CET)Baruth, Germany (10376): wind speed & gusts: 16.01.2019 04:00:00 - 22.01.2019 04:00:00 (CET)Baruth, Germany (10376): wind direction: 16.01.2019 04:00:00 - 22.01.2019 04:00:00 (CET)Baruth, Germany (10376): reduced air pressure: 16.01.2019 04:00:00 - 22.01.2019 04:00:00 (CET)Baruth, Germany (10376): visibility: 16.01.2019 04:00:00 - 22.01.2019 04:00:00 (CET)Baruth, Germany (10376): sunshine duration: 16.01.2019 04:00:00 - 22.01.2019 04:00:00 (CET)Baruth, Germany (10376): precipitation: 16.01.2019 04:00:00 - 22.01.2019 04:00:00 (CET)
Date & Time tt [°C] td [°C] tt 5cm [°C] tt -5cm [°C] tt -20cm [°C] tt -100cm [°C] ff [km/h] ff [kn] fx [km/h] fx [kn] dd ppp [hPa] vv [km] sd [min] rr [mm]
22.01.2019 04:00:00 -7,9 -9,4 -10,7 -4,3 0,3 5,2 7 4 8 5 ESE 1016,7 3,2 0 0,0
22.01.2019 03:00:00 -7,1 -8,5 -9,0 -4,1 0,3 5,2 7 4 9 5 ESE 1017,4 3,2 0 0,0
22.01.2019 02:00:00 -6,3 -7,8 -7,5 -3,7 0,4 5,2 6 3 9 5 ESE 1017,9 3,7 0 0,0
22.01.2019 01:00:00 -7,2 -8,6 -9,6 -4,1 0,4 5,2 5 3 11 6 SSE 1018,5 3,6 0 0,0
22.01.2019 00:00:00 -6,7 -8,0 -8,6 -3,9 0,4 5,2 9 5 13 7 SE 1018,9 3,4 0 0,0
21.01.2019 23:00:00 -7,4 -8,8 -9,1 -3,7 0,5 5,2 10 6 14 7 SE 1019,4 3,3 0 0,0
21.01.2019 22:00:00 -5,5 -6,9 -7,1 -3,4 0,5 5,2 9 5 13 7 ESE 1019,8 3,5 0 0,0
21.01.2019 21:00:00 -5,9 -7,1 -7,4 -3,1 0,6 5,2 10 6 14 7 SSE 1020,0 4,4 0 0,0
21.01.2019 20:00:00 -5,7 -7,2 -7,9 -2,4 0,6 5,2 4 2 13 7 ESE 1020,6 3,9 0 0,0
21.01.2019 19:00:00 -5,0 -6,3 -5,7 -2,2 0,6 5,2 8 5 14 8 S 1020,2 4,2 0 0,0
21.01.2019 18:00:00 -4,9 -6,2 -7,5 -1,6 0,6 5,3 3 2 16 9 SSE 1020,9 4,1 0 0,0
21.01.2019 17:00:00 -4,1 -5,8 -4,9 -0,5 0,6 5,3 10 5 15 8 S 1021,2 6 0 0,0
21.01.2019 16:00:00 -3,1 -5,5 -3,3 -0,1 0,6 5,3 9 5 11 6 SSW 1021,6 8 0 0,0
21.01.2019 15:00:00 -2,6 -5,3 -2,2 -0,2 0,6 5,3 6 3 16 8 W 1022,2 8 1 0,0
21.01.2019 14:00:00 -2,7 -5,0 -2,1 -0,2 0,6 5,3 9 5 16 9 SSE 1022,2 8 4 0,0
21.01.2019 13:00:00 -3,2 -5,4 -2,0 -0,3 0,6 5,3 8 5 14 8 S 1023,1 8 0 0,0
21.01.2019 12:00:00 -3,7 -5,6 -2,7 -0,4 0,6 5,3 6 4 12 6 SW 1023,9 6 0 0,0
21.01.2019 11:00:00 -4,4 -6,0 -3,5 -0,8 0,6 5,3 4 2 14 7 SSW 1024,4 6 0 0,0
21.01.2019 10:00:00 -4,4 -5,8 -3,7 -1,2 0,6 5,3 4 2 13 7 SSW 1024,3 4,9 0 0,0
21.01.2019 09:00:00 -4,9 -6,3 -4,5 -1,5 0,6 5,4 6 3 12 7 SSW 1024,3 6 0 0,0
21.01.2019 08:00:00 -4,8 -6,0 -4,4 -1,4 0,6 5,4 5 3 12 6 SSW 1024,1 6 0 0,0
21.01.2019 07:00:00 -4,6 -5,8 -4,2 -1,4 0,6 5,4 3 1 11 6 SSW 1023,9 4,2 0 0,0
21.01.2019 06:00:00 -4,6 -5,7 -4,3 -1,3 0,6 5,4 8 4 10 6 WSW 1024,0 4,8 0 0,0
21.01.2019 05:00:00 -4,5 -5,8 -4,2 -1,3 0,7 5,4 3 2 10 5 ENE 1024,2 3,9 0 0,0
21.01.2019 04:00:00 -4,4 -5,6 -4,0 -1,2 0,7 5,4 5 3 9 5 WSW 1024,2 3,0 0 0,0
21.01.2019 03:00:00 -4,3 -5,4 -4,0 -1,1 0,7 5,4 5 3 8 5 SW 1024,4 3,2 0 0,0
21.01.2019 02:00:00 -4,0 -5,5 -3,8 -1,1 0,7 5,4 3 2 7 4 NW 1024,2 5 0 0,0
21.01.2019 01:00:00 -3,8 -5,0 -3,6 -1,0 0,7 5,4 2 1 7 4 NNE 1024,2 7 0 0,0
21.01.2019 00:00:00 -3,8 -4,9 -3,5 -1,0 0,7 5,5 3 1 6 4 N 1024,2 5 0 0,0
20.01.2019 23:00:00 -3,5 -4,8 -3,2 -1,0 0,7 5,5 4 2 8 4 N 1023,9 4,1 0 0,0
20.01.2019 22:00:00 -3,5 -4,5 -3,2 -0,9 0,7 5,5 3 2 7 4 ENE 1023,4 2,5 0 0,0
20.01.2019 21:00:00 -3,6 -4,4 -3,3 -0,9 0,7 5,5 4 2 10 5 ESE 1022,8 2,1 0 0,0
20.01.2019 20:00:00 -3,6 -4,3 -3,3 -0,8 0,7 5,5 4 2 11 6 NE 1022,3 1,8 0 0,0
20.01.2019 19:00:00 -3,4 -4,5 -3,3 -0,8 0,7 5,5 5 3 11 6 ENE 1021,8 2,1 0 0,0
20.01.2019 18:00:00 -2,7 -4,8 -5,2 -0,3 0,7 5,5 3 2 8 4 ENE 1021,0 6 0 0,0
20.01.2019 17:00:00 -1,9 -5,7 -5,8 -0,1 0,7 5,5 0 0 6 3 N 1020,4 16 23 0,0
20.01.2019 16:00:00 0,9 -5,9 -0,2 -0,1 0,7 5,5 3 1 7 4 N 1020,1 22 60 0,0
20.01.2019 15:00:00 1,8 -6,5 2,3 -0,2 0,7 5,6 3 2 6 4 NW 1019,6 22 60 0,0
20.01.2019 14:00:00 1,3 -5,9 1,9 -0,2 0,7 5,6 3 2 7 4 ESE 1019,6 19 60 0,0
20.01.2019 13:00:00 0,5 -4,7 0,9 -0,3 0,7 5,6 3 2 8 4 SE 1019,9 13 60 0,0
20.01.2019 12:00:00 -1,3 -4,7 -0,6 -0,6 0,7 5,6 5 3 9 5 SE 1020,0 9 60 0,0
20.01.2019 11:00:00 -3,5 -6,1 -2,4 -1,6 0,7 5,6 6 3 12 6 ESE 1019,9 6 60 0,0
20.01.2019 10:00:00 -5,0 -7,1 -4,8 -3,2 0,8 5,6 6 4 11 6 ESE 1019,5 5 60 0,0
20.01.2019 09:00:00 -7,1 -8,8 -8,5 -3,8 0,9 5,6 6 3 9 5 E 1019,1 7 22 0,0
20.01.2019 08:00:00 -7,6 -9,1 -9,2 -3,7 0,9 5,6 7 4 9 5 E 1018,7 7 0 0,0
20.01.2019 07:00:00 -7,8 -9,3 -9,9 -3,4 1,0 5,7 8 4 10 5 E 1018,4 8 0 0,0
20.01.2019 06:00:00 -7,2 -8,6 -9,2 -3,2 1,0 5,7 6 3 10 5 E 1018,3 7 0 0,0
20.01.2019 05:00:00 -6,6 -8,0 -8,1 -2,8 1,1 5,7 6 4 10 5 E 1018,3 8 0 0,0
20.01.2019 04:00:00 -6,1 -7,3 -8,2 -2,5 1,2 5,7 6 3 9 5 E 1018,3 7 0 0,0
20.01.2019 03:00:00 -6,0 -7,3 -8,2 -2,2 1,2 5,7 6 3 9 5 ESE 1018,5 7 0 0,0
20.01.2019 02:00:00 -7,4 -9,3 -9,5 -1,7 1,3 5,7 6 4 11 6 ESE 1018,6 9 0 0,0
20.01.2019 01:00:00 -5,3 -6,4 -7,0 -1,2 1,4 5,7 7 4 10 6 ESE 1018,8 6 0 0,0
20.01.2019 00:00:00 -4,8 -5,9 -6,6 -0,8 1,4 5,7 7 4 9 5 E 1019,0 7 0 0,0
19.01.2019 23:00:00 -4,5 -5,6 -8,5 -0,3 1,5 5,7 7 4 10 5 E 1019,3 6 0 0,0
19.01.2019 22:00:00 -3,3 -4,4 -4,8 0,0 1,5 5,7 9 5 10 6 ESE 1019,2 7 0 0,0
19.01.2019 21:00:00 -2,7 -4,0 -3,8 0,1 1,5 5,8 8 5 10 6 ESE 1019,3 8 0 0,0
19.01.2019 20:00:00 -2,5 -3,8 -3,4 0,2 1,6 5,8 9 5 11 6 ESE 1019,5 9 0 0,0
19.01.2019 19:00:00 -2,4 -3,8 -4,9 0,3 1,6 5,8 8 4 10 5 E 1019,5 8 0 0,0
19.01.2019 18:00:00 -2,0 -3,7 -4,7 0,3 1,6 5,8 7 4 8 5 E 1019,6 12 0 0,0
19.01.2019 17:00:00 -0,9 -3,3 -3,9 0,4 1,7 5,8 5 3 7 4 E 1019,6 14 0 0,0
19.01.2019 16:00:00 1,2 -2,8 -0,8 0,4 1,7 5,8 6 4 11 6 ESE 1019,8 19 0 0,0
19.01.2019 15:00:00 1,9 -2,7 1,1 0,6 1,6 5,8 7 4 13 7 ESE 1020,2 20 29 0,0
19.01.2019 14:00:00 2,5 -2,7 2,9 0,3 1,6 5,8 7 4 13 7 ESE 1020,3 21 58 0,0
19.01.2019 13:00:00 2,7 -2,8 3,6 0,1 1,6 5,8 6 3 10 5 SE 1020,7 21 60 0,0
19.01.2019 12:00:00 2,4 -3,2 3,6 0,1 1,6 5,9 3 2 9 5 SE 1021,2 24 60 0,0
19.01.2019 11:00:00 1,1 -3,9 2,3 0,1 1,6 5,9 3 1 5 3 SE 1021,5 19 60 0,0
19.01.2019 10:00:00 -0,8 -3,8 -1,4 0,1 1,6 5,9 3 1 4 2 SE 1021,7 23 60 0,0
19.01.2019 09:00:00 -3,3 -4,9 -4,9 0,1 1,7 5,9 3 2 7 4 SE 1021,3 12 15 0,0
19.01.2019 08:00:00 -2,4 -3,8 -4,7 0,2 1,7 5,9 4 2 7 4 E 1021,0 15 0 0,0
19.01.2019 07:00:00 -1,1 -3,1 -3,1 0,3 1,7 5,9 3 2 5 3 SSE 1020,9 20 0 0,0
19.01.2019 06:00:00 -0,2 -2,8 -0,6 0,3 1,8 5,9 3 2 7 4 NW 1021,0 23 0 0,0
19.01.2019 05:00:00 -0,4 -2,8 -0,7 0,3 1,8 5,9 4 2 8 4 SSW 1021,0 23 0 0,0
19.01.2019 04:00:00 -0,2 -2,7 -0,7 0,3 1,8 5,9 4 2 12 6 WSW 1021,0 24 0 0,0
19.01.2019 03:00:00 -0,1 -2,9 -0,6 0,3 1,8 5,9 8 4 13 7 WSW 1021,0 27 0 0,0
19.01.2019 02:00:00 -0,4 -3,0 -1,1 0,4 1,8 6,0 3 2 9 5 W 1021,0 32 0 0,0
19.01.2019 01:00:00 -0,1 -3,1 -0,5 0,4 1,9 6,0 4 2 15 8 WSW 1021,0 34 0 0,0
19.01.2019 00:00:00 0,2 -3,3 -0,4 0,4 1,9 6,0 11 6 17 9 W 1021,1 42 0 0,0
18.01.2019 23:00:00 0,7 -3,3 0,4 0,4 1,9 6,0 12 7 17 9 WSW 1020,9 49 0 0,0
18.01.2019 22:00:00 0,7 -3,6 0,1 0,4 2,0 6,0 11 6 20 11 WSW 1020,5 50 0 0,0
18.01.2019 21:00:00 0,9 -3,5 0,4 0,4 2,0 6,0 14 7 22 12 WSW 1020,1 60 0 0,0
18.01.2019 20:00:00 0,8 -4,1 0,4 0,4 2,1 6,0 11 6 31 17 WSW 1019,9 69 0 0,0
18.01.2019 19:00:00 0,7 -4,5 0,3 0,4 2,1 6,0 14 7 21 12 WSW 1019,5 66 0 0,0
18.01.2019 18:00:00 -0,1 -4,8 -0,8 0,5 2,2 6,0 10 5 15 8 WSW 1019,6 62 0 0,0
18.01.2019 17:00:00 -0,6 -5,2 -3,2 0,6 2,2 6,0 9 5 15 8 SW 1019,5 70 23 0,0
18.01.2019 16:00:00 1,1 -5,1 0,3 0,7 2,3 6,0 11 6 25 13 WSW 1019,1 70 60 0,0
18.01.2019 15:00:00 1,9 -5,2 2,0 0,8 2,3 6,0 16 9 27 14 WSW 1018,9 41 60 0,0
18.01.2019 14:00:00 2,0 -5,2 2,3 0,8 2,3 6,0 21 12 31 17 W 1018,6 34 60 0,0
18.01.2019 13:00:00 1,7 -4,6 2,3 0,6 2,4 6,0 17 9 29 16 W 1018,6 54 54 0,0
18.01.2019 12:00:00 1,1 -5,2 1,3 0,6 2,4 6,0 13 7 23 13 W 1018,2 33 55 0,0
18.01.2019 11:00:00 0,3 -5,0 0,9 0,6 2,5 6,0 13 7 29 16 WNW 1017,7 26 58 0,0
18.01.2019 10:00:00 -0,3 -5,7 -0,3 0,6 2,6 6,0 13 7 27 15 WNW 1016,7 55 40 0,0
18.01.2019 09:00:00 -0,9 -6,4 -1,7 0,7 2,7 6,0 14 7 26 14 WNW 1015,2 70 0 0,0
18.01.2019 08:00:00 -0,5 -4,8 -1,0 0,7 2,8 6,0 13 7 35 19 NW 1013,6 70 0 0,6
18.01.2019 07:00:00 -0,1 -3,0 -0,4 0,8 2,9 6,0 21 11 29 16 W 1012,0 70 0 0,0
18.01.2019 06:00:00 -0,5 -3,0 -1,3 0,8 3,0 6,0 15 8 32 17 WNW 1011,1 70 0 0,0
18.01.2019 05:00:00 -0,6 -3,0 -1,2 0,9 3,2 6,0 11 6 34 18 WNW 1009,7 70 0 0,0
18.01.2019 04:00:00 -0,6 -2,6 -0,7 1,1 3,3 6,0 16 9 46 25 NW 1008,2 3,0 0 0,1
18.01.2019 03:00:00 1,9 -2,1 1,4 1,6 3,4 6,0 29 16 51 28 W 1006,1 64 0 0,0
18.01.2019 02:00:00 2,1 -1,5 1,5 1,8 3,6 6,0 30 16 44 24 W 1005,7 53 0 0,0
18.01.2019 01:00:00 1,9 -1,2 1,2 1,9 3,7 6,0 21 12 35 19 W 1005,1 66 0 0,0
18.01.2019 00:00:00 1,8 -0,4 0,8 2,2 3,8 6,0 20 11 42 23 WSW 1004,4 38 0 0,1
17.01.2019 23:00:00 2,6 0,1 2,0 2,5 3,9 6,0 23 12 37 20 W 1003,6 38 0 0,0
17.01.2019 22:00:00 2,8 0,8 2,3 2,9 4,0 6,0 24 13 36 20 W 1002,7 37 0 0,0
17.01.2019 21:00:00 2,5 1,0 2,1 3,0 4,1 6,0 22 12 35 19 W 1001,6 43 0 0,0
17.01.2019 20:00:00 2,2 1,1 1,9 3,4 4,2 6,0 21 11 60 32 W 1000,3 34 0 0,5
17.01.2019 19:00:00 5,7 1,5 4,8 3,2 4,2 6,0 22 12 36 19 SSW 998,1 70 0 0,0
17.01.2019 18:00:00 5,0 1,8 3,8 3,0 4,4 6,0 12 6 21 11 S 998,6 70 0 0,0
17.01.2019 17:00:00 5,0 1,5 3,2 3,5 4,5 6,0 14 8 27 14 SW 999,1 70 0 0,0
17.01.2019 16:00:00 5,7 1,9 5,1 4,3 4,5 6,0 17 9 34 18 SW 999,6 70 0 0,0
17.01.2019 15:00:00 6,1 1,5 5,0 4,9 4,5 6,0 17 9 32 17 WSW 999,8 70 0 0,0
17.01.2019 14:00:00 6,6 1,7 6,2 5,5 4,3 6,0 22 12 35 19 WSW 1000,2 70 7 0,0
17.01.2019 13:00:00 6,9 1,6 7,0 5,2 4,1 6,0 20 11 41 22 WSW 1000,5 70 5 0,0
17.01.2019 12:00:00 6,6 1,7 6,6 4,8 3,9 6,0 22 12 38 21 WSW 1000,9 57 9 0,0
17.01.2019 11:00:00 6,1 1,9 5,9 4,1 3,8 6,0 19 11 44 24 WSW 1001,4 59 0 0,0
17.01.2019 10:00:00 6,0 1,5 5,7 3,6 3,7 6,0 29 16 46 25 WSW 1000,8 47 0 0,0
17.01.2019 09:00:00 5,4 1,5 4,8 3,3 3,6 6,0 27 15 44 24 WSW 1000,2 43 0 0,0
17.01.2019 08:00:00 5,3 1,2 4,6 3,1 3,6 6,0 28 15 49 26 WSW 999,9 29 0 0,0
17.01.2019 07:00:00 5,4 0,5 4,9 2,9 3,5 6,0 29 15 48 26 WSW 999,5 40 0 0,0
17.01.2019 06:00:00 5,3 0,1 4,9 2,7 3,5 6,0 31 17 47 26 WSW 999,4 37 0 0,0
17.01.2019 05:00:00 4,8 -0,4 4,3 2,3 3,5 6,0 27 14 37 20 WSW 999,4 35 0 0,0
17.01.2019 04:00:00 4,2 -0,5 3,5 1,9 3,6 5,9 19 10 31 17 SW 999,7 37 0 0,0
17.01.2019 03:00:00 3,5 -0,6 2,2 1,9 3,8 5,9 17 9 29 15 SW 1000,0 35 0 0,0
17.01.2019 02:00:00 3,6 -0,4 2,6 2,0 3,9 5,9 18 10 32 17 SW 1000,4 31 0 0,0
17.01.2019 01:00:00 3,5 -0,5 2,4 2,2 4,1 5,9 19 10 31 17 SW 1001,0 28 0 0,0
17.01.2019 00:00:00 3,5 -0,5 2,4 2,4 4,3 5,9 14 8 28 15 SW 1001,9 28 0 0,0
16.01.2019 23:00:00 3,7 -0,5 2,7 2,9 4,4 5,9 16 9 28 15 SSW 1002,8 31 0 0,0
16.01.2019 22:00:00 4,0 -0,2 3,2 3,4 4,6 5,9 16 9 29 16 SSW 1003,6 35 0 0,0
16.01.2019 21:00:00 4,7 0,4 4,1 4,0 4,7 5,9 18 10 32 18 SSW 1004,0 34 0 0,0
16.01.2019 20:00:00 5,3 1,6 4,7 4,2 4,7 5,9 14 7 34 18 SW 1004,9 42 0 0,0
16.01.2019 19:00:00 5,8 1,3 5,3 4,4 4,8 5,9 19 10 39 21 SW 1005,5 57 0 0,0
16.01.2019 18:00:00 6,2 1,6 5,8 4,6 4,8 5,9 27 15 46 25 SW 1006,1 67 0 0,0
16.01.2019 17:00:00 6,5 2,1 6,0 4,8 4,8 5,9 23 12 40 22 SW 1006,4 68 0 0,0
16.01.2019 16:00:00 6,6 2,4 6,2 5,1 4,8 5,9 24 13 41 22 SW 1006,8 61 0 0,0
16.01.2019 15:00:00 6,6 2,9 6,3 5,3 4,7 5,9 19 11 39 21 SW 1007,2 67 0 0,0
16.01.2019 14:00:00 6,6 3,0 6,4 5,3 4,6 5,9 23 12 37 20 SW 1007,7 69 0 0,0
16.01.2019 13:00:00 6,6 3,1 6,4 5,2 4,5 5,9 23 12 37 20 WSW 1008,3 63 0 0,0
16.01.2019 12:00:00 6,2 3,2 6,1 4,9 4,5 5,9 22 12 38 21 WSW 1009,1 50 0 0,0
16.01.2019 11:00:00 5,8 3,5 5,6 4,7 4,4 5,9 24 13 32 17 SW 1009,6 44 0 0,0
16.01.2019 10:00:00 5,5 3,5 5,0 4,6 4,4 5,9 23 12 35 19 WSW 1009,6 18 0 0,0
16.01.2019 09:00:00 5,9 3,0 5,5 4,5 4,4 5,9 20 11 29 16 WSW 1009,5 25 0 0,0
16.01.2019 08:00:00 6,0 3,2 5,3 4,6 4,4 5,9 21 11 32 17 W 1009,3 32 0 0,0
16.01.2019 07:00:00 6,3 3,5 5,7 4,7 4,3 5,9 21 11 36 20 W 1009,3 23 0 0,0
16.01.2019 06:00:00 6,5 4,2 5,8 4,9 4,2 5,9 26 14 44 24 W 1009,3 13 0 0,1
16.01.2019 05:00:00 6,7 4,6 6,0 4,9 4,1 5,9 26 14 41 22 W 1009,4 11 0 0,0
16.01.2019 04:00:00 6,7 4,9 6,1 4,8 4,0 5,9 24 13 46 25 W 1009,4 12 0 0,0

tt = temperature
td = dewpoint
tt 5cm = temperature 5cm
tt -5cm = temperature -5cm
tt -20cm = temperature -20cm
tt -100cm = temperature -100cm
ff = wind speed
fx = gusts
dd = wind direction
ppp = reduced air pressure
vv = visibility
sd = sunshine duration
rr = precipitation

Next stations